[[{"header":{"parameterUnit":"m.s-1","parameterCategory":2,"la1":30.2991,"la2":30.254,"lo1":-89.0895,"lo2":-89.0444,"dy":0.0017,"dx":0.0017,"nx":28,"ny":28,"refTime":"2025-07-19T03:00:00:Z","depth":"0","parameterNumber":2,"parameterNumberName":"U-component_of_CURRENTS"},"data":[0,0,0,0,0,0,0,0,0,0,0,0,0,0,0,0,0,0,0,0,0,0,0,0,0,0,0,0,0,0,0,0,0,0,0,0,0,0,0,0,0,0,0,0,0,0,0,0,0,0,0,0,0,0,0,0,0,0,0.2374,0.2374,0,0.2386,0.2386,0.2386,0.2375,0.2375,0.2375,0.2375,0.2396,0.2397,0.2397,0,0,0,0,0,0,0,0,0,0,0,0,0,0.2353,0.2354,0.2374,0.2374,0.2374,0.2386,0.2386,0.2386,0.2375,0.2375,0.2375,0.2374,0.2396,0.2396,0.2397,0,0,0,0,0,0,0,0,0,0,0,0,0,0.2361,0.2354,0.2374,0.2372,0.2372,0.2386,0.2386,0.2386,0.2375,0.2375,0.2375,0.2374,0.2395,0.2396,0.2398,0.2412,0,0,0.2401,0.2402,0,0,0,0,0,0,0,0,0.2361,0.2362,0.2372,0.2372,0.2372,0.2381,0.2387,0.2396,0.2375,0.2372,0.2375,0.2374,0.2393,0.2395,0.2394,0.2413,0.2414,0.2401,0.2402,0.2402,0.2403,0,0,0,0,0,0,0,0.236,0.2361,0.2376,0.2372,0.2373,0.2375,0.2376,0.2388,0.2383,0.2372,0.2372,0.2377,0.2393,0.2393,0.2395,0.2414,0.2401,0.2402,0.2403,0.2403,0.2499,0.2501,0,0,0,0,0,0,0.2363,0.2361,0.2376,0.2377,0.2368,0.2376,0.2376,0.2377,0.2382,0.2384,0.2377,0.2376,0.2391,0.2394,0.2396,0.245,0.2402,0.2404,0.2404,0.2497,0.2499,0.2501,0,0,0,0,0,0,0.2363,0.2364,0.2375,0.2371,0.2373,0.2377,0.2377,0.2377,0.2384,0.2387,0.2387,0.2385,0.2391,0.2394,0.2423,0.2449,0.2404,0.2405,0.2495,0.2498,0.25,0.2535,0,0,0,0,0,0,0.2362,0.2364,0.2373,0.2371,0.2373,0.2398,0.2378,0.2378,0.2388,0.2387,0.2394,0.2395,0.2391,0.2421,0.2424,0.245,0.2406,0.2493,0.2496,0.25,0.2532,0.2539,0.2545,0,0,0,0,0,0.2361,0.238,0.2373,0.2375,0.2382,0.2399,0.2401,0.24,0.2389,0.2402,0.2407,0.2395,0.2445,0.2424,0.2427,0.2454,0.2491,0.2495,0.2499,0.2529,0.2538,0.2545,0,0,0,0,0,0,0.2372,0.2381,0.2373,0.2391,0.2399,0.2398,0.2409,0.2407,0.242,0.2415,0.2413,0.2416,0.2463,0.2453,0.2429,0.2495,0.2469,0.2473,0.249,0.2498,0.2505,0.2525,0.2407,0,0,0,0,0,0.2379,0.2395,0.2398,0.2412,0.2414,0.241,0.2418,0.2416,0.2424,0.2428,0.2437,0.245,0.2482,0.2484,0.2513,0.2533,0.2525,0.2556,0.2563,0.2568,0.2589,0.2624,0.2635,0.2515,0.2515,0.2515,0,0,0.2386,0.2393,0.2401,0.2416,0.2414,0.2429,0.2414,0.2426,0.2444,0.243,0.2461,0.2483,0.2499,0.2538,0.2555,0.2527,0.2588,0.2574,0.2578,0.2596,0.2629,0.2641,0.2651,0.2518,0.2517,0.2517,0,0,0.2399,0.241,0.242,0.2434,0.2442,0.2448,0.2455,0.2461,0.247,0.2497,0.2509,0.2552,0.2568,0.2601,0.2615,0.2676,0.2638,0.2674,0.2702,0.2735,0.2745,0.2754,0.2705,0.2709,0.2657,0.2657,0.2657,0,0.2404,0.2417,0.2428,0.2441,0.2457,0.2459,0.2473,0.2489,0.251,0.2524,0.2513,0.2589,0.2607,0.267,0.2695,0.2693,0.2671,0.2664,0.2742,0.2751,0.276,0.2708,0.2713,0.2659,0.2659,0.2658,0.2658,0,0.2413,0.2435,0.2444,0.2463,0.2486,0.2503,0.2524,0.2547,0.2554,0.2568,0.2633,0.2667,0.2706,0.2725,0.2726,0.2801,0.2749,0.276,0.2717,0.2774,0.2715,0.2719,0.2662,0.2661,0.2661,0.266,0,0,0.2395,0.2441,0.2445,0.2469,0.2501,0.2524,0.2558,0.2594,0.2615,0.2651,0.2693,0.2768,0.278,0.2802,0.2819,0.2851,0.2881,0.2825,0.2826,0.2766,0.2886,0.266,0.2641,0.2896,0.2898,0.29,0.28,0,0.2395,0.2429,0.2456,0.2507,0.2528,0.256,0.2587,0.2624,0.2652,0.2697,0.2749,0.2797,0.2808,0.2826,0.287,0.2899,0.2902,0.2903,0.2851,0.2849,0.2633,0.2644,0.2548,0.2436,0.2804,0.2804,0.2805,0,0.2386,0.242,0.2454,0.2528,0.2538,0.2568,0.2624,0.2657,0.2713,0.2726,0.2786,0.2819,0.2895,0.2893,0.2946,0.2938,0.2919,0.2925,0.2921,0.2709,0.2631,0.2452,0.2429,0.2379,0.281,0.281,0.281,0,0.2364,0.2429,0.2461,0.2484,0.255,0.2575,0.2614,0.2659,0.2684,0.2755,0.2763,0.2852,0.2878,0.2921,0.2902,0.2935,0.2919,0.2961,0.2729,0.2709,0.2619,0.2586,0.2539,0.2992,0.2993,0.2993,0.2993,0,0.2361,0.2396,0.2453,0.2477,0.2518,0.2568,0.2611,0.2646,0.2694,0.2712,0.2779,0.2792,0.2892,0.2882,0.2894,0.2774,0.2895,0.2727,0.2681,0.2617,0.2588,0.2531,0.2506,0.2989,0.299,0.2991,0.2991,0,0.234,0.2368,0.2423,0.2491,0.2506,0.2543,0.2606,0.2629,0.2659,0.2689,0.2706,0.2753,0.271,0.2725,0.2754,0.2704,0.2551,0.2578,0.2438,0.2376,0.2109,0.2087,0.1871,0.1838,0.2333,0.2327,0.2322,0,0.2336,0.2352,0.2425,0.2437,0.247,0.2522,0.2534,0.2599,0.2619,0.2641,0.2643,0.2611,0.2545,0.2436,0.2373,0.2273,0.2281,0.21,0.2167,0.2057,0.2004,0.1952,0.1943,0.2053,0.2046,0.204,0.2036,0,0.2342,0.2357,0.2408,0.2404,0.243,0.2458,0.2491,0.2495,0.2541,0.2522,0.2449,0.2395,0.2272,0.2118,0.1962,0.1916,0.1972,0.1973,0.1957,0.1837,0.1691,0.1648,0.2104,0.1986,0.1991,0.1994,0.1997,0.1999,0.2348,0.2367,0.2384,0.2379,0.2387,0.2341,0.2315,0.2327,0.229,0.2197,0.2238,0.207,0.1968,0.1732,0.1657,0.1467,0.1545,0.1452,0.1447,0.1415,0.1342,0.1606,0.1369,0.137,0.1371,0.1372,0.1373,0,0.2324,0.2326,0.2335,0.2303,0.2238,0.2259,0.2229,0.2154,0.2034,0.1976,0.1859,0.1652,0.1463,0.1368,0.1166,0.1032,0.106,0.0972,0.0992,0.1029,0.1361,0.1312,0.0933,0.0933,0.0933,0.0933,0.0933,0.0933,0.2318,0.2293,0.2276,0.2139,0.2088,0.1948,0.1889,0.1787,0.1715,0.1482,0.133,0.1279,0.1194,0.0955,0.0765,0.073,0.0726,0.056,0.0626,0.0972,0.1023,0.1071,0.1024,0.0591,0.0591,0.0319,0.0316,0.0314]},{"header":{"parameterUnit":"m.s-1","parameterCategory":2,"la1":30.2991,"la2":30.254,"lo1":-89.0895,"lo2":-89.0444,"dy":0.0017,"dx":0.0017,"nx":28,"ny":28,"refTime":"2025-07-19T03:00:00:Z","depth":"0","parameterNumber":3,"parameterNumberName":"V-component_of_CURRENTS"},"data":[0,0,0,0,0,0,0,0,0,0,0,0,0,0,0,0,0,0,0,0,0,0,0,0,0,0,0,0,0,0,0,0,0,0,0,0,0,0,0,0,0,0,0,0,0,0,0,0,0,0,0,0,0,0,0,0,0,0,0.0517,0.0518,0,0.058,0.0581,0.0581,0.059,0.059,0.0589,0.0589,0.061,0.0611,0.0612,0,0,0,0,0,0,0,0,0,0,0,0,0,0.0422,0.0423,0.0517,0.0518,0.0518,0.058,0.0581,0.0581,0.0591,0.059,0.0589,0.0589,0.061,0.0611,0.0612,0,0,0,0,0,0,0,0,0,0,0,0,0,0.0471,0.0424,0.0517,0.0531,0.0533,0.058,0.0581,0.0582,0.0591,0.059,0.0589,0.0588,0.0609,0.0611,0.0612,0.0638,0,0,0.0617,0.0618,0,0,0,0,0,0,0,0,0.0468,0.0475,0.0528,0.053,0.0532,0.0577,0.0555,0.0599,0.0591,0.0568,0.0589,0.0588,0.0596,0.0599,0.0612,0.0639,0.064,0.0617,0.0618,0.0619,0.062,0,0,0,0,0,0,0,0.0465,0.0472,0.0541,0.0529,0.0531,0.054,0.0546,0.0564,0.0585,0.057,0.0571,0.0579,0.0597,0.0611,0.0613,0.064,0.0617,0.0619,0.062,0.062,0.0693,0.0694,0,0,0,0,0,0,0.0458,0.0469,0.0539,0.0543,0.0498,0.0542,0.0549,0.0563,0.0585,0.0589,0.058,0.0579,0.0608,0.0611,0.0613,0.066,0.0619,0.0621,0.0621,0.0692,0.0694,0.0695,0,0,0,0,0,0,0.0456,0.0464,0.0537,0.0507,0.0517,0.0545,0.056,0.0565,0.0579,0.0593,0.0595,0.0589,0.0608,0.0611,0.0633,0.066,0.0621,0.0623,0.0691,0.0693,0.0694,0.0742,0,0,0,0,0,0,0.0453,0.0463,0.0473,0.0507,0.0519,0.0568,0.0561,0.0566,0.0585,0.0585,0.0603,0.0604,0.0607,0.063,0.0634,0.0661,0.0624,0.069,0.0692,0.0694,0.074,0.0745,0.075,0,0,0,0,0,0.045,0.0474,0.0473,0.0482,0.0531,0.0569,0.0576,0.0592,0.0587,0.06,0.0609,0.0603,0.0645,0.0633,0.0637,0.0665,0.0689,0.0691,0.0693,0.0737,0.0744,0.075,0,0,0,0,0,0,0.0438,0.0478,0.0478,0.0512,0.0536,0.057,0.0587,0.0595,0.0615,0.0612,0.0617,0.062,0.0651,0.0649,0.0635,0.069,0.0666,0.0669,0.0697,0.0704,0.0709,0.0742,0.0625,0,0,0,0,0,0.0439,0.0468,0.0498,0.0524,0.0535,0.0559,0.0576,0.0587,0.0609,0.0617,0.063,0.0644,0.0666,0.0675,0.0693,0.0723,0.072,0.0742,0.0748,0.0752,0.0782,0.0803,0.0813,0.0702,0.0702,0.0702,0,0,0.0441,0.0467,0.0482,0.0523,0.0541,0.0577,0.0567,0.0597,0.0631,0.0616,0.0661,0.0664,0.0677,0.0714,0.0727,0.0714,0.0775,0.0755,0.0759,0.0787,0.0806,0.0817,0.0827,0.0703,0.0703,0.0703,0,0,0.0465,0.0481,0.0511,0.0536,0.0568,0.059,0.0597,0.0632,0.0649,0.0686,0.0688,0.0714,0.0737,0.0765,0.0778,0.0825,0.0803,0.0817,0.0874,0.0893,0.0903,0.0911,0.0889,0.0895,0.0819,0.0819,0.0819,0,0.0462,0.051,0.0525,0.0561,0.0591,0.0597,0.0637,0.0662,0.07,0.0731,0.0703,0.0772,0.0772,0.0842,0.0853,0.0841,0.0829,0.0847,0.0901,0.091,0.0918,0.0893,0.09,0.0821,0.0821,0.0821,0.0821,0,0.0511,0.0548,0.0569,0.062,0.0651,0.0687,0.072,0.0753,0.0765,0.0794,0.0854,0.0858,0.0905,0.09,0.089,0.0955,0.0917,0.0904,0.0886,0.0932,0.0902,0.0908,0.0825,0.0824,0.0823,0.0823,0,0,0.0513,0.0588,0.0597,0.0637,0.0687,0.0726,0.078,0.0847,0.0901,0.092,0.0993,0.102,0.1022,0.1038,0.1029,0.1043,0.1065,0.0998,0.0997,0.0978,0.1076,0.1012,0.1011,0.1055,0.1057,0.1059,0.1019,0,0.0547,0.0627,0.0659,0.0743,0.0789,0.0823,0.0879,0.0937,0.0975,0.1043,0.1061,0.1114,0.1074,0.1091,0.1106,0.1083,0.1088,0.1076,0.1034,0.1032,0.0973,0.102,0.1041,0.1006,0.1025,0.1026,0.1026,0,0.0587,0.0641,0.0721,0.0823,0.0845,0.0895,0.1,0.1052,0.1136,0.1162,0.1218,0.1227,0.1271,0.1216,0.1216,0.1204,0.1155,0.1122,0.1119,0.1058,0.0982,0.097,0.1015,0.1067,0.1035,0.1034,0.1034,0,0.0596,0.0694,0.0764,0.0795,0.0897,0.0948,0.1005,0.1091,0.1154,0.1241,0.1283,0.1333,0.1347,0.1323,0.1247,0.1235,0.122,0.1192,0.1091,0.1083,0.1097,0.1087,0.1199,0.1202,0.1202,0.1202,0.1203,0,0.0633,0.0694,0.0775,0.0818,0.0917,0.0973,0.1082,0.1141,0.1233,0.1317,0.1342,0.1397,0.1374,0.1357,0.1287,0.12,0.1248,0.1121,0.1087,0.1107,0.11,0.1139,0.1148,0.1201,0.1201,0.1202,0.1202,0,0.0646,0.069,0.0784,0.0889,0.0923,0.0996,0.1123,0.1203,0.1268,0.1375,0.1402,0.1449,0.1415,0.1362,0.1307,0.1237,0.1181,0.112,0.112,0.1087,0.1039,0.1047,0.1072,0.1122,0.102,0.1018,0.1017,0,0.0665,0.0708,0.0825,0.0878,0.0931,0.1037,0.1111,0.121,0.1297,0.1402,0.1457,0.1456,0.1461,0.1343,0.1232,0.1109,0.1129,0.1041,0.1038,0.1064,0.1049,0.1041,0.1084,0.1058,0.1057,0.1056,0.1056,0,0.0706,0.0738,0.0819,0.091,0.0995,0.11,0.1213,0.1282,0.1396,0.1464,0.1528,0.1531,0.1429,0.1331,0.1163,0.1078,0.1096,0.1019,0.1081,0.1128,0.1099,0.112,0.1022,0.105,0.105,0.1051,0.1051,0.1051,0.0737,0.0791,0.0869,0.0964,0.1047,0.114,0.1218,0.1327,0.1431,0.1521,0.1543,0.1535,0.1454,0.1228,0.1136,0.103,0.1023,0.1013,0.1026,0.1019,0.1073,0.0933,0.0898,0.0898,0.0898,0.0898,0.0897,0,0.0768,0.0824,0.0913,0.1014,0.1082,0.1129,0.1268,0.1334,0.1425,0.1504,0.1533,0.151,0.1388,0.128,0.1136,0.1085,0.1091,0.1066,0.112,0.117,0.1085,0.1096,0.1064,0.1064,0.1064,0.1064,0.1064,0.1064,0.0791,0.0861,0.0902,0.1006,0.1071,0.1153,0.122,0.1314,0.1395,0.1456,0.1479,0.1509,0.1521,0.1293,0.1219,0.1189,0.126,0.117,0.1223,0.1218,0.1216,0.1215,0.1233,0.123,0.123,0.1346,0.1347,0.1348]}],[{"header":{"parameterUnit":"m.s-1","parameterCategory":2,"la1":30.2991,"la2":30.254,"lo1":-89.0895,"lo2":-89.0444,"dy":0.0017,"dx":0.0017,"nx":28,"ny":28,"refTime":"2025-07-19T03:00:00:Z","depth":"2","parameterNumber":2,"parameterNumberName":"U-component_of_CURRENTS"},"data":[0,0,0,0,0,0,0,0,0,0,0,0,0,0,0,0,0,0,0,0,0,0,0,0,0,0,0,0,0,0,0,0,0,0,0,0,0,0,0,0,0,0,0,0,0,0,0,0,0,0,0,0,0,0,0,0,0,0,0.1941,0.1941,0,0.1949,0.1949,0.195,0.1988,0.1989,0.1989,0.199,0.1997,0.1996,0.1996,0,0,0,0,0,0,0,0,0,0,0,0,0,0.1958,0.1958,0.1941,0.1941,0.194,0.1949,0.1949,0.195,0.1988,0.1989,0.1989,0.199,0.1997,0.1996,0.1996,0,0,0,0,0,0,0,0,0,0,0,0,0,0.196,0.1958,0.1941,0.1958,0.1959,0.1949,0.1949,0.195,0.1988,0.1989,0.1989,0.199,0.1997,0.1996,0.1996,0.1974,0,0,0.1994,0.1994,0,0,0,0,0,0,0,0,0.196,0.196,0.1956,0.1957,0.1958,0.1965,0.1958,0.1957,0.1987,0.198,0.199,0.1991,0.1983,0.1984,0.1988,0.1975,0.1975,0.1994,0.1994,0.1994,0.1993,0,0,0,0,0,0,0,0.1959,0.1959,0.1947,0.1955,0.1957,0.1965,0.1967,0.1958,0.1979,0.1981,0.1983,0.1978,0.1985,0.1989,0.1989,0.1975,0.1994,0.1994,0.1993,0.1993,0.2074,0.2076,0,0,0,0,0,0,0.1951,0.1959,0.1947,0.1947,0.1957,0.1964,0.1966,0.1965,0.1979,0.1982,0.1978,0.198,0.1989,0.1989,0.1989,0.2047,0.1994,0.1993,0.1993,0.2072,0.2075,0.2077,0,0,0,0,0,0,0.1951,0.195,0.1947,0.1951,0.195,0.1962,0.1961,0.1964,0.1986,0.1976,0.1979,0.1997,0.199,0.199,0.2006,0.2045,0.1993,0.1992,0.2069,0.2073,0.2076,0.2111,0,0,0,0,0,0,0.1952,0.195,0.195,0.195,0.195,0.1959,0.196,0.1964,0.1979,0.1983,0.1993,0.1994,0.1991,0.2007,0.2005,0.2043,0.1992,0.2066,0.207,0.2075,0.2106,0.2115,0.2122,0,0,0,0,0,0.1952,0.1949,0.195,0.1948,0.1948,0.1959,0.1961,0.1974,0.1979,0.1996,0.2005,0.1995,0.2037,0.2007,0.2005,0.2044,0.2063,0.2069,0.2074,0.2103,0.2113,0.2122,0,0,0,0,0,0,0.1958,0.1952,0.1953,0.1949,0.1961,0.1965,0.1979,0.1981,0.2001,0.2013,0.2003,0.2005,0.2045,0.2039,0.2006,0.2088,0.2058,0.2063,0.208,0.209,0.2098,0.2114,0.1991,0,0,0,0,0,0.1955,0.1955,0.1956,0.1956,0.1967,0.1975,0.1981,0.1994,0.2005,0.2016,0.2019,0.2038,0.2063,0.207,0.209,0.2108,0.2095,0.2144,0.2152,0.2158,0.2175,0.2205,0.2217,0.2096,0.2096,0.2096,0,0,0.1954,0.1953,0.1952,0.1957,0.1972,0.1991,0.1984,0.2009,0.2026,0.2011,0.2042,0.2062,0.2078,0.2117,0.2136,0.2115,0.2177,0.2166,0.2171,0.2184,0.2212,0.2224,0.2234,0.2099,0.2099,0.2098,0,0,0.1959,0.1962,0.1968,0.1974,0.1994,0.2013,0.2023,0.2042,0.2058,0.2079,0.2093,0.2136,0.2147,0.2181,0.2195,0.2258,0.2224,0.2272,0.2314,0.2343,0.2352,0.236,0.2309,0.2313,0.2269,0.227,0.227,0,0.197,0.1962,0.1973,0.198,0.1986,0.2026,0.204,0.2066,0.2085,0.21,0.21,0.2171,0.2184,0.2244,0.2282,0.2276,0.2259,0.2266,0.235,0.2359,0.2367,0.2312,0.2316,0.2272,0.2272,0.2271,0.2271,0,0.1962,0.1968,0.1979,0.2004,0.2018,0.2042,0.2072,0.2107,0.2134,0.2152,0.2216,0.2246,0.2289,0.2313,0.2314,0.2393,0.2347,0.2356,0.2316,0.238,0.2319,0.2322,0.2275,0.2274,0.2274,0.2273,0,0,0.196,0.1976,0.1976,0.199,0.203,0.2046,0.2093,0.2142,0.2176,0.2222,0.2265,0.2338,0.2366,0.2388,0.241,0.2447,0.2476,0.2432,0.2432,0.2362,0.2481,0.2303,0.2288,0.2498,0.25,0.2502,0.2396,0,0.1962,0.199,0.1977,0.2009,0.2043,0.2067,0.2108,0.2156,0.2198,0.2256,0.2321,0.2376,0.239,0.2423,0.2468,0.2485,0.2495,0.25,0.2447,0.2444,0.2264,0.2291,0.2152,0.2035,0.2398,0.2399,0.2399,0,0.1948,0.1979,0.2004,0.204,0.205,0.208,0.215,0.2176,0.2265,0.2294,0.2367,0.2405,0.2483,0.2492,0.2532,0.2532,0.2518,0.2519,0.2515,0.2346,0.2274,0.2043,0.2027,0.2404,0.2403,0.2403,0.2403,0,0.1955,0.1986,0.2013,0.2016,0.2068,0.2093,0.2143,0.2215,0.2232,0.2333,0.2353,0.2446,0.249,0.2519,0.2515,0.2528,0.2535,0.2539,0.2353,0.2337,0.2207,0.2176,0.257,0.257,0.257,0.2571,0.2571,0,0.1947,0.1963,0.2033,0.2036,0.21,0.2123,0.2172,0.2229,0.2293,0.2313,0.2384,0.2412,0.2509,0.2514,0.2514,0.2416,0.2519,0.2355,0.2313,0.2207,0.2179,0.2508,0.2503,0.2567,0.2568,0.2568,0.2569,0,0.1927,0.1956,0.1986,0.2058,0.2099,0.2141,0.22,0.2213,0.2278,0.2307,0.2335,0.2399,0.237,0.2394,0.2423,0.2372,0.2327,0.227,0.2094,0.2032,0.2099,0.2097,0.203,0.2023,0.2018,0.2013,0.2009,0,0.1918,0.1941,0.2012,0.2024,0.2055,0.2126,0.2161,0.2234,0.2238,0.2273,0.2282,0.2278,0.2227,0.2154,0.2106,0.2007,0.2142,0.1812,0.1821,0.2086,0.2052,0.2059,0.2064,0.1646,0.1639,0.1633,0.1629,0,0.1907,0.1923,0.1922,0.1995,0.2027,0.2043,0.2114,0.212,0.2157,0.2149,0.2106,0.2061,0.1984,0.1825,0.1716,0.1661,0.1814,0.1688,0.205,0.1792,0.1712,0.1682,0.1703,0.158,0.1585,0.1589,0.1591,0.1593,0.1883,0.1883,0.1898,0.1922,0.1954,0.1949,0.1927,0.194,0.1908,0.1851,0.1899,0.1751,0.1739,0.1455,0.1361,0.1289,0.1421,0.1375,0.1398,0.1425,0.1388,0.1302,0.1082,0.1083,0.1085,0.1087,0.1088,0,0.1853,0.184,0.1848,0.1847,0.1807,0.1874,0.1863,0.1777,0.1684,0.1644,0.1561,0.1328,0.1169,0.1146,0.0956,0.0893,0.0957,0.0846,0.0961,0.1008,0.105,0.1002,0.0588,0.0586,0.0585,0.0584,0,0,0.1834,0.1798,0.1777,0.1696,0.169,0.1613,0.1567,0.1464,0.1406,0.124,0.114,0.1149,0.113,0.0878,0.0809,0.0677,0.0851,0.0631,0.1035,0.1222,0.1264,0.135,0.1325,0,0,0,0,0]},{"header":{"parameterUnit":"m.s-1","parameterCategory":2,"la1":30.2991,"la2":30.254,"lo1":-89.0895,"lo2":-89.0444,"dy":0.0017,"dx":0.0017,"nx":28,"ny":28,"refTime":"2025-07-19T03:00:00:Z","depth":"2","parameterNumber":3,"parameterNumberName":"V-component_of_CURRENTS"},"data":[0,0,0,0,0,0,0,0,0,0,0,0,0,0,0,0,0,0,0,0,0,0,0,0,0,0,0,0,0,0,0,0,0,0,0,0,0,0,0,0,0,0,0,0,0,0,0,0,0,0,0,0,0,0,0,0,0,0,0.0291,0.0291,0,0.0338,0.0339,0.0339,0.0366,0.0366,0.0366,0.0366,0.0378,0.0379,0.0379,0,0,0,0,0,0,0,0,0,0,0,0,0,0.0217,0.0218,0.0291,0.0291,0.0292,0.0338,0.0339,0.0339,0.0366,0.0366,0.0366,0.0366,0.0378,0.0379,0.0379,0,0,0,0,0,0,0,0,0,0,0,0,0,0.0255,0.0219,0.029,0.031,0.0313,0.0338,0.0339,0.0339,0.0366,0.0366,0.0366,0.0366,0.0378,0.0379,0.0379,0.038,0,0,0.038,0.0381,0,0,0,0,0,0,0,0,0.0253,0.0258,0.0307,0.0309,0.0312,0.0346,0.0317,0.0351,0.0366,0.0346,0.0366,0.0366,0.0364,0.0366,0.0375,0.038,0.0381,0.038,0.0381,0.0381,0.0381,0,0,0,0,0,0,0,0.0251,0.0256,0.031,0.0307,0.031,0.0315,0.032,0.0324,0.0353,0.0347,0.0349,0.0354,0.0365,0.0375,0.0376,0.0381,0.038,0.0381,0.0381,0.0381,0.0427,0.0428,0,0,0,0,0,0,0.0245,0.0254,0.0308,0.0311,0.0282,0.0316,0.0322,0.0335,0.0354,0.0357,0.0354,0.0355,0.0374,0.0375,0.0376,0.0418,0.0381,0.0381,0.0381,0.0426,0.0427,0.0428,0,0,0,0,0,0,0.0243,0.0249,0.0306,0.0283,0.029,0.0317,0.0331,0.0336,0.0351,0.036,0.0362,0.0365,0.0374,0.0375,0.0389,0.0416,0.0381,0.0382,0.0425,0.0426,0.0427,0.0475,0,0,0,0,0,0,0.0241,0.0249,0.0254,0.0283,0.0291,0.0329,0.0331,0.0337,0.0354,0.0356,0.037,0.0371,0.0374,0.0388,0.0389,0.0416,0.0382,0.0423,0.0425,0.0427,0.0472,0.0478,0.0482,0,0,0,0,0,0.0238,0.025,0.0254,0.026,0.0298,0.033,0.0335,0.0354,0.0354,0.0367,0.0375,0.0371,0.0401,0.0389,0.039,0.0418,0.0422,0.0425,0.0427,0.047,0.0476,0.0482,0,0,0,0,0,0,0.0223,0.0255,0.0259,0.028,0.0304,0.0334,0.0348,0.0356,0.0373,0.0377,0.0378,0.038,0.0402,0.0401,0.0388,0.0437,0.0413,0.0415,0.0445,0.0452,0.0457,0.0479,0.0382,0,0,0,0,0,0.022,0.0238,0.0267,0.0284,0.0298,0.0321,0.0334,0.0351,0.037,0.0378,0.0386,0.0398,0.0412,0.0423,0.0431,0.0454,0.0445,0.0474,0.048,0.0484,0.0503,0.0517,0.0525,0.0435,0.0435,0.0435,0,0,0.0217,0.0238,0.0247,0.0282,0.0303,0.0333,0.0331,0.0361,0.039,0.0375,0.0412,0.0411,0.0419,0.045,0.0461,0.0454,0.0499,0.0487,0.0491,0.0508,0.052,0.0529,0.0536,0.0436,0.0436,0.0436,0,0,0.0232,0.0243,0.0268,0.0288,0.0323,0.0344,0.0352,0.0386,0.0407,0.0435,0.0436,0.0453,0.047,0.0491,0.0501,0.0539,0.0521,0.054,0.0593,0.0605,0.0613,0.062,0.0592,0.0596,0.0549,0.0549,0.0549,0,0.023,0.0264,0.0279,0.0308,0.033,0.035,0.0383,0.041,0.0444,0.0468,0.0453,0.0499,0.0496,0.0549,0.0564,0.0553,0.0543,0.0567,0.0613,0.0619,0.0626,0.0596,0.0599,0.0552,0.0552,0.0551,0.0551,0,0.0264,0.029,0.0308,0.0354,0.0377,0.041,0.0446,0.0481,0.0499,0.0522,0.057,0.0571,0.0605,0.0604,0.0596,0.0648,0.0619,0.0611,0.0597,0.0638,0.0603,0.0606,0.0556,0.0555,0.0554,0.0553,0,0,0.0268,0.0324,0.0328,0.0359,0.0405,0.0434,0.0489,0.0549,0.06,0.0619,0.0681,0.0697,0.07,0.0712,0.0708,0.072,0.0735,0.0692,0.0691,0.0664,0.0738,0.0709,0.0709,0.0738,0.0739,0.0741,0.0685,0,0.0296,0.0361,0.0376,0.0436,0.0477,0.0507,0.0566,0.0618,0.0655,0.0717,0.0734,0.0777,0.0743,0.0764,0.0775,0.0747,0.0751,0.0749,0.0703,0.0701,0.0673,0.0716,0.0699,0.065,0.0688,0.0689,0.0689,0,0.0329,0.0371,0.0434,0.0505,0.0525,0.0567,0.0663,0.0711,0.0794,0.0826,0.087,0.0872,0.0903,0.0866,0.0848,0.0848,0.0806,0.0774,0.0771,0.0739,0.0681,0.0621,0.0653,0.0694,0.0693,0.0693,0.0693,0,0.0344,0.0411,0.0466,0.0486,0.0568,0.0616,0.067,0.0754,0.0814,0.0896,0.0935,0.0965,0.0989,0.095,0.0888,0.0868,0.0859,0.0815,0.0747,0.0742,0.0718,0.0709,0.0814,0.0814,0.0814,0.0814,0.0814,0,0.0374,0.0414,0.0486,0.0515,0.0611,0.0649,0.075,0.0816,0.0907,0.0984,0.0992,0.1046,0.1016,0.1002,0.0926,0.0853,0.0885,0.077,0.0743,0.0729,0.0723,0.0759,0.0754,0.0812,0.0813,0.0813,0.0813,0,0.0383,0.0421,0.0489,0.058,0.0623,0.069,0.0809,0.0877,0.0951,0.105,0.1077,0.1119,0.1084,0.1029,0.0972,0.0902,0.083,0.0799,0.0768,0.0739,0.068,0.0677,0.069,0.0689,0.0688,0.0688,0.0687,0,0.0398,0.0436,0.0537,0.0589,0.0635,0.0738,0.0819,0.0913,0.0989,0.1087,0.1142,0.1143,0.1138,0.1035,0.0938,0.0808,0.0813,0.0716,0.0679,0.0704,0.0676,0.0674,0.0673,0.0642,0.0641,0.0641,0.064,0,0.0426,0.0455,0.0499,0.0624,0.0707,0.0796,0.0919,0.0988,0.1091,0.1149,0.1212,0.1198,0.1117,0.0999,0.0862,0.0771,0.0731,0.0693,0.0758,0.0683,0.0656,0.0629,0.063,0.0633,0.0634,0.0634,0.0635,0.0635,0.0439,0.0474,0.0547,0.0652,0.0745,0.0853,0.0926,0.1026,0.1122,0.1212,0.1224,0.1185,0.11,0.0881,0.0766,0.0654,0.0662,0.0599,0.0602,0.0606,0.0618,0.0592,0.0556,0.0556,0.0556,0.0557,0.0557,0,0.0461,0.0503,0.059,0.0703,0.0785,0.0851,0.099,0.1037,0.1126,0.1193,0.1214,0.1057,0.0939,0.0828,0.0654,0.055,0.0543,0.0503,0.0521,0.0529,0.0536,0.0544,0.0462,0.0462,0.0461,0.0461,0,0,0.0474,0.0535,0.0573,0.0709,0.0794,0.0899,0.0965,0.1036,0.1102,0.1115,0.1101,0.1095,0.0964,0.081,0.068,0.0576,0.0572,0.0543,0.063,0.0676,0.0684,0.0601,0.0624,0,0,0,0,0]}],[{"header":{"parameterUnit":"m.s-1","parameterCategory":2,"la1":30.2991,"la2":30.254,"lo1":-89.0895,"lo2":-89.0444,"dy":0.0017,"dx":0.0017,"nx":28,"ny":28,"refTime":"2025-07-19T03:00:00:Z","depth":"4","parameterNumber":2,"parameterNumberName":"U-component_of_CURRENTS"},"data":[0,0,0,0,0,0,0,0,0,0,0,0,0,0,0,0,0,0,0,0,0,0,0,0,0,0,0,0,0,0,0,0,0,0,0,0,0,0,0,0,0,0,0,0,0,0,0,0,0,0,0,0,0,0,0,0,0,0,0.0916,0.0917,0,0.0919,0.0919,0.0918,0.0943,0.0944,0.0945,0.0946,0.1003,0.1004,0.1004,0,0,0,0,0,0,0,0,0,0,0,0,0,0.0922,0.0922,0.0916,0.0917,0.0917,0.0919,0.0919,0.0918,0.0943,0.0944,0.0945,0.0946,0.1003,0.1003,0.1004,0,0,0,0,0,0,0,0,0,0,0,0,0,0.0919,0.0922,0.0916,0.0932,0.0934,0.0919,0.0919,0.0918,0.0943,0.0944,0.0945,0.0947,0.1002,0.1003,0.1004,0.0983,0,0,0.1007,0.1008,0,0,0,0,0,0,0,0,0.0919,0.0918,0.0929,0.0931,0.0933,0.0935,0.0942,0.0944,0.0942,0.0936,0.0946,0.0947,0.0986,0.0989,0.0981,0.0986,0.0988,0.1008,0.1008,0.1009,0.1009,0,0,0,0,0,0,0,0.0919,0.0918,0.0914,0.093,0.0932,0.0935,0.0936,0.0942,0.0952,0.0936,0.0939,0.0944,0.0987,0.098,0.0983,0.0989,0.1008,0.1008,0.1009,0.1009,0.1054,0.1054,0,0,0,0,0,0,0.0924,0.0918,0.0914,0.0914,0.0933,0.0934,0.0935,0.093,0.0951,0.0956,0.0943,0.0945,0.0977,0.0981,0.0985,0.1035,0.1009,0.101,0.101,0.1053,0.1054,0.1054,0,0,0,0,0,0,0.0924,0.0923,0.0914,0.092,0.0919,0.0933,0.0927,0.093,0.0944,0.0956,0.0961,0.0958,0.0978,0.0983,0.1008,0.1035,0.101,0.1011,0.1052,0.1053,0.1054,0.1089,0,0,0,0,0,0,0.0924,0.0923,0.0929,0.092,0.0919,0.0917,0.0926,0.0929,0.0945,0.0949,0.097,0.0975,0.098,0.1006,0.1009,0.1036,0.1012,0.1052,0.1053,0.1054,0.1087,0.1091,0.1094,0,0,0,0,0,0.0924,0.0921,0.0928,0.0929,0.0924,0.0917,0.0917,0.093,0.0945,0.0948,0.0967,0.0976,0.1015,0.1007,0.101,0.1038,0.1051,0.1053,0.1054,0.1086,0.109,0.1094,0,0,0,0,0,0,0.0927,0.0923,0.0931,0.0929,0.0931,0.0923,0.0931,0.0938,0.0952,0.097,0.0977,0.0983,0.1024,0.1017,0.1008,0.1053,0.1037,0.1039,0.106,0.1064,0.1068,0.1084,0.1013,0,0,0,0,0,0.093,0.0929,0.0927,0.0928,0.093,0.0934,0.0938,0.0949,0.0958,0.0966,0.0981,0.1001,0.1025,0.1034,0.1053,0.1065,0.1068,0.1086,0.109,0.1093,0.1107,0.1141,0.1149,0.1059,0.1059,0.1059,0,0,0.0933,0.0932,0.0933,0.093,0.0933,0.0929,0.0939,0.0953,0.096,0.0971,0.0993,0.1022,0.1034,0.1062,0.1077,0.1061,0.1113,0.1094,0.1097,0.111,0.1143,0.1152,0.116,0.106,0.1059,0.1059,0,0,0.093,0.0937,0.0934,0.0935,0.0948,0.0945,0.0954,0.0961,0.0978,0.1002,0.1021,0.1063,0.1082,0.1099,0.1109,0.1139,0.1142,0.1147,0.1168,0.12,0.1208,0.1215,0.1203,0.1209,0.1136,0.1136,0.1136,0,0.0939,0.0924,0.0934,0.093,0.0932,0.0952,0.0949,0.0961,0.098,0.1012,0.1021,0.1089,0.1104,0.1139,0.1157,0.1151,0.1155,0.1151,0.1206,0.1213,0.122,0.1206,0.1213,0.1138,0.1138,0.1137,0.1137,0,0.0924,0.0921,0.092,0.0917,0.0925,0.0926,0.0944,0.0972,0.1007,0.1036,0.1105,0.1125,0.1167,0.1179,0.1181,0.1235,0.1216,0.1217,0.1197,0.1232,0.1214,0.122,0.114,0.114,0.1139,0.1139,0,0,0.092,0.0908,0.0913,0.0906,0.0918,0.0919,0.0951,0.0985,0.1029,0.1075,0.1126,0.1182,0.1222,0.1234,0.1241,0.1269,0.1314,0.1267,0.1268,0.1259,0.136,0.1229,0.1222,0.1332,0.1334,0.1335,0.1318,0,0.0904,0.088,0.0891,0.0881,0.0864,0.0906,0.0937,0.0991,0.1043,0.1101,0.116,0.1224,0.1228,0.1267,0.1292,0.1319,0.1336,0.1317,0.1326,0.1325,0.1209,0.1228,0.1341,0.1322,0.1323,0.1324,0.1325,0,0.0886,0.0865,0.085,0.0858,0.0864,0.088,0.0946,0.098,0.1081,0.1138,0.1212,0.1263,0.1318,0.1321,0.1369,0.1359,0.137,0.1381,0.1381,0.1256,0.1206,0.1287,0.1336,0.1335,0.1334,0.1333,0.1333,0,0.0856,0.0841,0.0826,0.0825,0.0847,0.0879,0.091,0.1007,0.1063,0.1171,0.1235,0.13,0.1342,0.1377,0.1397,0.1401,0.1435,0.1434,0.1319,0.1308,0.1417,0.141,0.1482,0.1482,0.1482,0.1482,0.1482,0,0.0815,0.0808,0.0815,0.0805,0.0827,0.0864,0.0928,0.0989,0.1088,0.1157,0.1253,0.1294,0.1371,0.1395,0.1406,0.1358,0.1437,0.1327,0.1304,0.1426,0.142,0.1419,0.1412,0.1481,0.1481,0.1481,0.1481,0,0.0787,0.0785,0.0772,0.0793,0.0812,0.0837,0.0925,0.0974,0.1084,0.1164,0.1211,0.1308,0.1333,0.1367,0.1406,0.1351,0.1338,0.1307,0.1407,0.139,0.1185,0.118,0.1173,0.1168,0.1164,0.1161,0.1158,0,0.0763,0.0748,0.077,0.078,0.0793,0.0838,0.0882,0.0971,0.1011,0.1152,0.1168,0.1249,0.1294,0.1227,0.1268,0.1247,0.1242,0.1215,0.1231,0.1179,0.1158,0.1159,0.116,0.1152,0.1151,0.115,0.1149,0,0.0713,0.0741,0.0737,0.0758,0.0784,0.0809,0.0854,0.0875,0.098,0.1082,0.1117,0.1144,0.1147,0.1148,0.1134,0.1126,0.1222,0.1174,0.1183,0.1198,0.1154,0.1137,0.1142,0.1136,0.1138,0.1139,0.114,0,0.0699,0.0687,0.0701,0.0721,0.0754,0.0758,0.0788,0.0813,0.0861,0.0995,0.0989,0.1068,0.1132,0.1083,0.107,0.1043,0.1034,0.1004,0.1022,0.1037,0.0999,0.0922,0.0815,0,0,0,0,0,0.0673,0.0651,0.066,0.0656,0.0699,0.0718,0.0764,0.0796,0.0871,0.0868,0.0931,0.0939,0.094,0.0964,0.0908,0.0988,0.1026,0.0915,0.0998,0.1061,0.1077,0.1043,0,0,0,0,0,0,0.0644,0.0645,0.0632,0.0616,0.0618,0.0637,0.0663,0.0715,0.0705,0.0799,0.0797,0.0873,0.0875,0.0968,0.0893,0.0896,0.0922,0.0953,0.0949,0.1053,0.1067,0.1079,0.1049,0,0,0,0,0]},{"header":{"parameterUnit":"m.s-1","parameterCategory":2,"la1":30.2991,"la2":30.254,"lo1":-89.0895,"lo2":-89.0444,"dy":0.0017,"dx":0.0017,"nx":28,"ny":28,"refTime":"2025-07-19T03:00:00:Z","depth":"4","parameterNumber":3,"parameterNumberName":"V-component_of_CURRENTS"},"data":[0,0,0,0,0,0,0,0,0,0,0,0,0,0,0,0,0,0,0,0,0,0,0,0,0,0,0,0,0,0,0,0,0,0,0,0,0,0,0,0,0,0,0,0,0,0,0,0,0,0,0,0,0,0,0,0,0,0,0.0124,0.0124,0,0.0155,0.0155,0.0156,0.0171,0.0171,0.0171,0.0171,0.0184,0.0184,0.0184,0,0,0,0,0,0,0,0,0,0,0,0,0,0.008,0.0081,0.0124,0.0124,0.0125,0.0155,0.0155,0.0156,0.0171,0.0171,0.0171,0.0171,0.0183,0.0184,0.0184,0,0,0,0,0,0,0,0,0,0,0,0,0,0.0104,0.0081,0.0124,0.0136,0.0137,0.0155,0.0155,0.0156,0.0171,0.0171,0.0171,0.0171,0.0183,0.0184,0.0184,0.0188,0,0,0.0186,0.0186,0,0,0,0,0,0,0,0,0.0103,0.0106,0.0134,0.0135,0.0136,0.0159,0.0144,0.0166,0.0171,0.0158,0.0171,0.0171,0.0173,0.0175,0.0181,0.0189,0.0189,0.0186,0.0186,0.0187,0.0187,0,0,0,0,0,0,0,0.0101,0.0105,0.0136,0.0134,0.0136,0.014,0.0143,0.0149,0.0166,0.016,0.0161,0.0164,0.0174,0.0181,0.0182,0.019,0.0186,0.0186,0.0187,0.0187,0.0203,0.0203,0,0,0,0,0,0,0.0097,0.0103,0.0135,0.0137,0.0119,0.0141,0.0145,0.0152,0.0166,0.0168,0.0164,0.0164,0.018,0.0181,0.0182,0.0199,0.0187,0.0187,0.0187,0.0203,0.0203,0.0203,0,0,0,0,0,0,0.0096,0.0099,0.0134,0.012,0.0125,0.0142,0.015,0.0152,0.0164,0.0169,0.0171,0.0172,0.018,0.0181,0.019,0.0199,0.0187,0.0188,0.0203,0.0203,0.0203,0.0226,0,0,0,0,0,0,0.0094,0.0099,0.0103,0.012,0.0126,0.0147,0.015,0.0153,0.0165,0.0166,0.0177,0.0178,0.018,0.0189,0.019,0.02,0.0188,0.0203,0.0203,0.0203,0.0225,0.0226,0.0228,0,0,0,0,0,0.0093,0.0099,0.0103,0.0106,0.013,0.0147,0.015,0.0162,0.0165,0.0171,0.0178,0.0178,0.0191,0.0189,0.0191,0.0201,0.0202,0.0203,0.0203,0.0224,0.0226,0.0228,0,0,0,0,0,0,0.0083,0.0101,0.0106,0.0118,0.0131,0.0149,0.0156,0.0164,0.0175,0.0178,0.0181,0.0183,0.0193,0.0192,0.019,0.0204,0.0196,0.0196,0.0211,0.0213,0.0215,0.0216,0.0189,0,0,0,0,0,0.0082,0.0092,0.0108,0.0119,0.0124,0.0141,0.0149,0.0159,0.0171,0.0177,0.0183,0.0188,0.0195,0.02,0.0203,0.0213,0.0202,0.0219,0.022,0.0222,0.0223,0.0213,0.0213,0.0204,0.0204,0.0204,0,0,0.008,0.0093,0.0098,0.0117,0.0129,0.0143,0.0146,0.0162,0.018,0.0176,0.0195,0.0194,0.0198,0.0209,0.0213,0.021,0.0218,0.0222,0.0224,0.0224,0.0213,0.0214,0.0215,0.0204,0.0204,0.0204,0,0,0.0086,0.0094,0.0105,0.0118,0.0138,0.0147,0.0153,0.0172,0.0184,0.0204,0.0202,0.0204,0.022,0.022,0.0224,0.0235,0.0225,0.0237,0.0251,0.0241,0.0242,0.0242,0.0226,0.0225,0.024,0.024,0.024,0,0.0082,0.0102,0.011,0.0128,0.0141,0.015,0.0168,0.0182,0.0202,0.0215,0.0213,0.0225,0.0226,0.0235,0.0241,0.0239,0.023,0.0245,0.0243,0.0244,0.0244,0.0227,0.0226,0.0241,0.0241,0.0241,0.0241,0,0.0101,0.0116,0.0124,0.0148,0.0163,0.0179,0.0199,0.0214,0.0228,0.0242,0.0255,0.0248,0.0256,0.0255,0.0256,0.0258,0.025,0.0246,0.024,0.0246,0.0228,0.0226,0.0243,0.0243,0.0242,0.0242,0,0,0.0095,0.0129,0.0133,0.0151,0.0177,0.0193,0.022,0.0247,0.0271,0.0276,0.0294,0.0297,0.0289,0.029,0.028,0.0271,0.0264,0.0264,0.0262,0.0249,0.0238,0.0244,0.0242,0.0262,0.0262,0.0262,0.0224,0,0.0108,0.0143,0.0157,0.019,0.021,0.0229,0.0256,0.0282,0.0302,0.0319,0.0308,0.0323,0.0304,0.031,0.0293,0.0273,0.0261,0.0274,0.0232,0.0231,0.0237,0.0241,0.0262,0.0222,0.0222,0.0222,0.0221,0,0.0124,0.0147,0.0181,0.0223,0.0233,0.0255,0.0301,0.0325,0.035,0.0368,0.0366,0.036,0.0345,0.0329,0.0286,0.0297,0.0272,0.025,0.0248,0.0244,0.0233,0.0214,0.0218,0.0218,0.0218,0.0218,0.0219,0,0.0127,0.0165,0.0194,0.0209,0.0253,0.0278,0.0303,0.0342,0.0377,0.0396,0.042,0.0391,0.0387,0.0343,0.0301,0.0299,0.0248,0.0238,0.0214,0.0213,0.0209,0.0209,0.0209,0.0209,0.0209,0.0209,0.0209,0,0.0139,0.0163,0.0201,0.022,0.0264,0.029,0.0344,0.037,0.0409,0.0446,0.044,0.0448,0.0394,0.0361,0.0308,0.0254,0.0253,0.0216,0.0206,0.0219,0.022,0.0207,0.0208,0.0208,0.0208,0.0208,0.0209,0,0.0141,0.0162,0.02,0.0248,0.0269,0.0301,0.0376,0.0416,0.0452,0.0494,0.0506,0.0498,0.0457,0.0397,0.0326,0.0278,0.022,0.0202,0.0218,0.021,0.0187,0.0188,0.0168,0.0168,0.0168,0.0168,0.0168,0,0.0147,0.0165,0.0221,0.0252,0.0277,0.0334,0.0381,0.0433,0.0473,0.0519,0.0531,0.0519,0.0501,0.0397,0.033,0.0234,0.0222,0.0189,0.0188,0.0191,0.0184,0.0185,0.0187,0.0168,0.0168,0.0168,0.0168,0,0.0155,0.0172,0.0203,0.0267,0.0317,0.0375,0.0437,0.0471,0.0525,0.0557,0.056,0.0525,0.0478,0.0394,0.0332,0.0257,0.0207,0.0188,0.0188,0.0186,0.019,0.0183,0.0185,0.0167,0.0167,0.0167,0.0167,0,0.016,0.0178,0.0221,0.0281,0.0342,0.0397,0.0434,0.0481,0.0522,0.0567,0.0557,0.052,0.0497,0.0406,0.0338,0.0279,0.0259,0.0229,0.0226,0.0226,0.0256,0.0271,0.0266,0,0,0,0,0,0.0166,0.0187,0.0237,0.0296,0.0361,0.0395,0.0465,0.0497,0.0542,0.0546,0.0559,0.0516,0.0438,0.0399,0.034,0.0329,0.0244,0.0257,0.0206,0.0166,0.0167,0.0193,0,0,0,0,0,0,0.0168,0.0204,0.0228,0.0302,0.0346,0.041,0.0454,0.0485,0.049,0.0523,0.0478,0.0485,0.0402,0.0463,0.0329,0.0315,0.0272,0.0228,0.0226,0.0166,0.0166,0.0167,0.0194,0,0,0,0,0]}]]